[Date Prev][Date Next][Thread Prev][Thread Next] - [Date Index][Thread Index][Author Index]
2 Line ISS Keps 11-19
- Subject: [sarex] 2 Line ISS Keps 11-19
- From: "Dave Larsen PhD" <doc@xxxxxxxxxxx>
- Date: Wed, 19 Nov 2003 02:22:10 -0800
ISS
1 25544U 98067A 03323.23038194 .00019645 00000-0 20712-3 0 7876
2 25544 51.6309 318.3137 0006403 150.3337 31.6714 15.64234600285230
----
Via the sarex mailing list at AMSAT.ORG courtesy of AMSAT-NA.
To unsubscribe, send "unsubscribe sarex" to Majordomo@amsat.org
AMSAT Home